Time,TemperatureF,DewpointF,PressureIn,WindDirection,WindDirectionDegrees,WindSpeedMPH,WindSpeedGustMPH,Humidity,HourlyPrecipIn,Conditions,Clouds,dailyrainin,SoftwareType,DateUTC
2013-04-15 00:02:00,23.9,15.0,29.87,WSW,254,0.0,-999.0,70,-99.99,,,0.00,weatherlink.com 1.10,2013-04-15 06:02:00,
2013-04-15 00:17:00,24.1,15.0,29.87,WSW,254,1.0,-999.0,68,-99.99,,,0.00,weatherlink.com 1.10,2013-04-15 06:17:00,
2013-04-15 00:32:00,24.3,15.0,29.87,WSW,254,0.0,-999.0,68,-99.99,,,0.00,weatherlink.com 1.10,2013-04-15 06:32:00,
2013-04-15 00:47:00,24.7,15.0,29.86,WSW,254,0.0,-999.0,67,-99.99,,,0.00,weatherlink.com 1.10,2013-04-15 06:47:00,
2013-04-15 01:02:00,24.9,15.0,29.86,WSW,254,0.0,-999.0,66,-99.99,,,0.00,weatherlink.com 1.10,2013-04-15 07:02:00,
2013-04-15 01:47:00,24.6,15.0,29.86,WSW,254,2.0,-999.0,67,-99.99,,,0.00,weatherlink.com 1.10,2013-04-15 07:47:00,
2013-04-15 02:02:00,24.3,16.0,29.84,WSW,254,1.0,-999.0,71,-99.99,,,0.00,weatherlink.com 1.10,2013-04-15 08:02:00,
2013-04-15 02:17:00,24.4,14.0,29.83,WSW,254,0.0,-999.0,66,-99.99,,,0.00,weatherlink.com 1.10,2013-04-15 08:17:00,
2013-04-15 02:32:00,23.8,14.0,29.83,WSW,254,0.0,-999.0,66,-99.99,,,0.00,weatherlink.com 1.10,2013-04-15 08:32:00,
2013-04-15 02:47:00,23.3,14.0,29.83,WSW,254,0.0,-999.0,68,-99.99,,,0.00,weatherlink.com 1.10,2013-04-15 08:47:00,
2013-04-15 03:02:00,22.7,14.0,29.83,WSW,254,0.0,-999.0,70,-99.99,,,0.00,weatherlink.com 1.10,2013-04-15 09:02:00,
2013-04-15 03:17:00,21.8,14.0,29.83,WSW,254,0.0,-999.0,71,-99.99,,,0.00,weatherlink.com 1.10,2013-04-15 09:17:00,
2013-04-15 03:32:00,21.6,14.0,29.83,WSW,254,0.0,-999.0,72,-99.99,,,0.00,weatherlink.com 1.10,2013-04-15 09:32:00,
2013-04-15 03:47:00,21.1,14.0,29.84,WSW,254,0.0,-999.0,74,-99.99,,,0.00,weatherlink.com 1.10,2013-04-15 09:47:00,
2013-04-15 04:02:00,20.7,14.0,29.85,WSW,254,1.0,-999.0,75,-99.99,,,0.00,weatherlink.com 1.10,2013-04-15 10:02:00,
2013-04-15 04:17:00,20.9,14.0,29.85,WSW,254,0.0,-999.0,75,-99.99,,,0.00,weatherlink.com 1.10,2013-04-15 10:17:00,
2013-04-15 04:32:00,21.3,15.0,29.85,WSW,254,2.0,-999.0,75,-99.99,,,0.00,weatherlink.com 1.10,2013-04-15 10:32:00,
2013-04-15 04:47:00,21.6,15.0,29.85,WSW,254,0.0,-999.0,74,-99.99,,,0.00,weatherlink.com 1.10,2013-04-15 10:47:00,
2013-04-15 05:02:00,21.2,14.0,29.86,WSW,254,1.0,-999.0,75,-99.99,,,0.00,weatherlink.com 1.10,2013-04-15 11:02:00,
2013-04-15 05:17:00,20.8,14.0,29.85,WSW,254,0.0,-999.0,74,-99.99,,,0.00,weatherlink.com 1.10,2013-04-15 11:17:00,
2013-04-15 05:32:00,19.7,13.0,29.86,WSW,254,0.0,-999.0,75,-99.99,,,0.00,weatherlink.com 1.10,2013-04-15 11:32:00,
2013-04-15 06:02:00,19.7,14.0,29.85,WSW,254,0.0,-999.0,78,-99.99,,,0.00,weatherlink.com 1.10,2013-04-15 12:02:00,
2013-04-15 06:17:00,19.7,14.0,29.86,WSW,254,0.0,-999.0,78,-99.99,,,0.00,weatherlink.com 1.10,2013-04-15 12:17:00,
2013-04-15 06:32:00,20.0,14.0,29.86,WSW,254,0.0,-999.0,78,-99.99,,,0.00,weatherlink.com 1.10,2013-04-15 12:32:00,
2013-04-15 06:47:00,20.5,14.0,29.86,WSW,254,0.0,-999.0,77,-99.99,,,0.00,weatherlink.com 1.10,2013-04-15 12:47:00,
2013-04-15 07:17:00,21.2,14.0,29.87,WSW,254,0.0,-999.0,74,-99.99,,,0.00,weatherlink.com 1.10,2013-04-15 13:17:00,
2013-04-15 07:32:00,21.5,14.0,29.87,WSW,254,0.0,-999.0,74,-99.99,,,0.00,weatherlink.com 1.10,2013-04-15 13:32:00,
2013-04-15 07:47:00,21.8,14.0,29.88,WSW,254,0.0,-999.0,73,-99.99,,,0.00,weatherlink.com 1.10,2013-04-15 13:47:00,
2013-04-15 08:02:00,22.4,15.0,29.88,WSW,254,0.0,-999.0,74,-99.99,,,0.00,weatherlink.com 1.10,2013-04-15 14:02:00,
2013-04-15 08:17:00,23.4,16.0,29.88,WSW,254,1.0,-999.0,72,-99.99,,,0.00,weatherlink.com 1.10,2013-04-15 14:17:00,
2013-04-15 08:32:00,24.1,16.0,29.88,WSW,254,0.0,-999.0,72,-99.99,,,0.00,weatherlink.com 1.10,2013-04-15 14:32:00,
2013-04-15 08:46:00,25.0,17.0,29.87,WSW,254,0.0,-999.0,71,-99.99,,,0.00,weatherlink.com 1.10,2013-04-15 14:46:00,
2013-04-15 09:02:00,26.3,17.0,29.87,WSW,254,3.0,-999.0,68,-99.99,,,0.00,weatherlink.com 1.10,2013-04-15 15:02:00,
2013-04-15 09:17:00,27.4,16.0,29.87,WSW,254,4.0,-999.0,62,-99.99,,,0.00,weatherlink.com 1.10,2013-04-15 15:17:00,
2013-04-15 09:31:00,28.7,15.0,29.87,WSW,254,0.0,-999.0,58,-99.99,,,0.00,weatherlink.com 1.10,2013-04-15 15:31:00,
2013-04-15 09:47:00,30.0,15.0,29.87,WSW,254,0.0,-999.0,54,-99.99,,,0.00,weatherlink.com 1.10,2013-04-15 15:47:00,
2013-04-15 10:02:00,31.0,15.0,29.86,WSW,254,0.0,-999.0,52,-99.99,,,0.00,weatherlink.com 1.10,2013-04-15 16:02:00,
2013-04-15 10:16:00,32.0,15.0,29.86,WSW,256,1.0,-999.0,50,-99.99,,,0.00,weatherlink.com 1.10,2013-04-15 16:16:00,
2013-04-15 10:32:00,32.4,16.0,29.85,NW,311,12.0,-999.0,52,-99.99,,,0.00,weatherlink.com 1.10,2013-04-15 16:32:00,
2013-04-15 10:47:00,33.3,15.0,29.86,SSW,202,5.0,-999.0,48,-99.99,,,0.00,weatherlink.com 1.10,2013-04-15 16:47:00,
2013-04-15 11:17:00,34.2,15.0,29.86,South,188,4.0,-999.0,45,-99.99,,,0.00,weatherlink.com 1.10,2013-04-15 17:17:00,
2013-04-15 11:32:00,34.4,15.0,29.86,SSW,192,2.0,-999.0,46,-99.99,,,0.00,weatherlink.com 1.10,2013-04-15 17:32:00,
2013-04-15 11:47:00,35.9,16.0,29.85,SE,142,6.0,-999.0,45,-99.99,,,0.00,weatherlink.com 1.10,2013-04-15 17:47:00,
2013-04-15 12:02:00,36.1,16.0,29.85,SSE,161,9.0,-999.0,45,-99.99,,,0.00,weatherlink.com 1.10,2013-04-15 18:02:00,
2013-04-15 12:32:00,36.9,16.0,29.84,SSE,166,7.0,-999.0,43,-99.99,,,0.00,weatherlink.com 1.10,2013-04-15 18:32:00,
2013-04-15 12:47:00,36.6,17.0,29.84,North,5,1.0,-999.0,45,-99.99,,,0.00,weatherlink.com 1.10,2013-04-15 18:47:00,
2013-04-15 13:02:00,35.5,16.0,29.84,WNW,288,5.0,-999.0,46,-99.99,,,0.00,weatherlink.com 1.10,2013-04-15 19:02:00,
2013-04-15 13:17:00,34.0,20.0,29.84,WSW,248,12.0,-999.0,57,-99.99,,,0.00,weatherlink.com 1.10,2013-04-15 19:17:00,
2013-04-15 14:01:00,33.2,22.0,29.85,WNW,288,5.0,-999.0,63,-99.99,,,0.00,weatherlink.com 1.10,2013-04-15 20:01:00,
2013-04-15 14:16:00,33.5,22.0,29.84,NNE,28,2.0,-999.0,64,-99.99,,,0.00,weatherlink.com 1.10,2013-04-15 20:16:00,
2013-04-15 14:31:00,32.7,24.0,29.84,ENE,59,11.0,-999.0,71,-99.99,,,0.00,weatherlink.com 1.10,2013-04-15 20:31:00,
2013-04-15 14:46:00,31.1,24.0,29.85,NE,40,14.0,-999.0,74,-99.99,,,0.00,weatherlink.com 1.10,2013-04-15 20:46:00,
2013-04-15 15:03:00,30.2,24.0,29.86,NE,40,13.0,-999.0,76,-99.99,,,0.00,weatherlink.com 1.10,2013-04-15 21:03:00,
2013-04-15 15:17:00,30.1,23.0,29.86,NNE,27,6.0,-999.0,74,-99.99,,,0.00,weatherlink.com 1.10,2013-04-15 21:17:00,
2013-04-15 15:32:00,30.1,22.0,29.87,North,360,4.0,-999.0,71,-99.99,,,0.00,weatherlink.com 1.10,2013-04-15 21:32:00,
2013-04-15 15:47:00,27.9,23.0,29.88,West,271,5.0,-999.0,83,-99.99,,,0.00,weatherlink.com 1.10,2013-04-15 21:47:00,
2013-04-15 16:02:00,27.4,24.0,29.88,West,267,4.0,-999.0,86,-99.99,,,0.00,weatherlink.com 1.10,2013-04-15 22:02:00,
2013-04-15 16:16:00,27.4,24.0,29.88,West,267,3.0,-999.0,87,-99.99,,,0.00,weatherlink.com 1.10,2013-04-15 22:16:00,
2013-04-15 16:32:00,27.6,25.0,29.89,West,267,0.0,-999.0,88,-99.99,,,0.00,weatherlink.com 1.10,2013-04-15 22:32:00,
2013-04-15 16:46:00,28.1,25.0,29.88,West,267,0.0,-999.0,88,-99.99,,,0.00,weatherlink.com 1.10,2013-04-15 22:46:00,
2013-04-15 17:01:00,28.8,26.0,29.89,West,267,1.0,-999.0,88,-99.99,,,0.00,weatherlink.com 1.10,2013-04-15 23:01:00,
2013-04-15 17:17:00,28.8,25.0,29.89,West,267,0.0,-999.0,87,-99.99,,,0.01,weatherlink.com 1.10,2013-04-15 23:17:00,
2013-04-15 17:32:00,28.5,25.0,29.89,West,267,1.0,-999.0,87,-99.99,,,0.01,weatherlink.com 1.10,2013-04-15 23:32:00,
2013-04-15 17:47:00,28.4,25.0,29.89,West,267,0.0,-999.0,87,-99.99,,,0.02,weatherlink.com 1.10,2013-04-15 23:47:00,
2013-04-15 18:02:00,28.8,26.0,29.90,West,267,2.0,-999.0,88,-99.99,,,0.02,weatherlink.com 1.10,2013-04-16 00:02:00,
2013-04-15 18:17:00,28.5,25.0,29.91,West,267,2.0,-999.0,87,-99.99,,,0.02,weatherlink.com 1.10,2013-04-16 00:17:00,
2013-04-15 18:31:00,28.4,25.0,29.91,West,267,3.0,-999.0,87,-99.99,,,0.02,weatherlink.com 1.10,2013-04-16 00:31:00,
2013-04-15 18:47:00,28.4,25.0,29.92,West,267,2.0,-999.0,87,-99.99,,,0.02,weatherlink.com 1.10,2013-04-16 00:47:00,
2013-04-15 19:01:00,28.7,25.0,29.93,West,267,1.0,-999.0,87,-99.99,,,0.03,weatherlink.com 1.10,2013-04-16 01:01:00,
2013-04-15 19:16:00,29.3,25.0,29.93,West,267,1.0,-999.0,85,-99.99,,,0.03,weatherlink.com 1.10,2013-04-16 01:16:00,
2013-04-15 19:32:00,29.3,25.0,29.93,West,267,0.0,-999.0,83,-99.99,,,0.03,weatherlink.com 1.10,2013-04-16 01:32:00,
2013-04-15 19:47:00,28.6,25.0,29.94,West,267,3.0,-999.0,85,-99.99,,,0.03,weatherlink.com 1.10,2013-04-16 01:47:00,
2013-04-15 20:03:00,28.0,25.0,29.94,West,267,5.0,-999.0,87,-99.99,,,0.03,weatherlink.com 1.10,2013-04-16 02:03:00,
2013-04-15 20:17:00,27.6,25.0,29.95,West,267,3.0,-999.0,88,-99.99,,,0.03,weatherlink.com 1.10,2013-04-16 02:17:00,
2013-04-15 20:32:00,27.1,24.0,29.96,West,267,5.0,-999.0,88,-99.99,,,0.03,weatherlink.com 1.10,2013-04-16 02:32:00,
2013-04-15 20:47:00,27.0,24.0,29.96,West,267,0.0,-999.0,88,-99.99,,,0.03,weatherlink.com 1.10,2013-04-16 02:47:00,
2013-04-15 21:01:00,26.9,24.0,29.97,West,267,2.0,-999.0,88,-99.99,,,0.03,weatherlink.com 1.10,2013-04-16 03:01:00,
2013-04-15 21:17:00,26.9,24.0,29.97,West,267,0.0,-999.0,88,-99.99,,,0.03,weatherlink.com 1.10,2013-04-16 03:17:00,
2013-04-15 21:32:00,26.8,24.0,29.97,West,267,0.0,-999.0,88,-99.99,,,0.03,weatherlink.com 1.10,2013-04-16 03:32:00,
2013-04-15 21:47:00,26.6,24.0,29.96,West,267,0.0,-999.0,88,-99.99,,,0.03,weatherlink.com 1.10,2013-04-16 03:47:00,
2013-04-15 22:03:00,26.3,23.0,29.96,West,267,3.0,-999.0,88,-99.99,,,0.03,weatherlink.com 1.10,2013-04-16 04:03:00,
2013-04-15 22:17:00,26.0,23.0,29.95,West,267,0.0,-999.0,88,-99.99,,,0.03,weatherlink.com 1.10,2013-04-16 04:17:00,
2013-04-15 22:31:00,25.2,22.0,29.92,West,267,1.0,-999.0,87,-99.99,,,0.03,weatherlink.com 1.10,2013-04-16 04:31:00,
2013-04-15 22:46:00,24.6,21.0,29.88,West,267,4.0,-999.0,87,-99.99,,,0.03,weatherlink.com 1.10,2013-04-16 04:46:00,
2013-04-15 23:02:00,24.4,22.0,29.92,West,267,0.0,-999.0,89,-99.99,,,0.03,weatherlink.com 1.10,2013-04-16 05:02:00,
2013-04-15 23:17:00,24.9,22.0,29.92,West,267,0.0,-999.0,89,-99.99,,,0.03,weatherlink.com 1.10,2013-04-16 05:17:00,
2013-04-15 23:32:00,23.9,21.0,29.92,West,267,2.0,-999.0,87,-99.99,,,0.03,weatherlink.com 1.10,2013-04-16 05:32:00,
2013-04-15 23:47:00,23.5,20.0,29.93,West,267,7.0,-999.0,86,-99.99,,,0.03,weatherlink.com 1.10,2013-04-16 05:47:00,